Time,TemperatureF,DewpointF,PressureIn,WindDirection,WindDirectionDegrees,WindSpeedMPH,WindSpeedGustMPH,Humidity,HourlyPrecipIn,Conditions,Clouds,dailyrainin,SoftwareType,DateUTC
2013-04-25 00:08:00,74.7,63.0,30.14,ENE,68,1.0,5.0,67,0.00,,,0.00,weatherlink.com 1.10,2013-04-25 04:08:00,
2013-04-25 00:23:00,74.4,63.0,30.14,ENE,64,0.0,3.0,67,0.00,,,0.00,weatherlink.com 1.10,2013-04-25 04:23:00,
2013-04-25 00:38:00,74.5,63.0,30.14,NE,38,3.0,4.0,67,0.00,,,0.00,weatherlink.com 1.10,2013-04-25 04:38:00,
2013-04-25 00:54:00,74.3,63.0,30.13,ESE,105,1.0,5.0,67,0.00,,,0.00,weatherlink.com 1.10,2013-04-25 04:54:00,
2013-04-25 01:09:00,74.0,62.0,30.13,ESE,106,2.0,4.0,66,0.00,,,0.00,weatherlink.com 1.10,2013-04-25 05:09:00,
2013-04-25 01:24:00,74.1,62.0,30.12,East,83,1.0,4.0,66,0.00,,,0.00,weatherlink.com 1.10,2013-04-25 05:24:00,
2013-04-25 01:39:00,74.0,63.0,30.12,NE,51,2.0,5.0,68,0.00,,,0.00,weatherlink.com 1.10,2013-04-25 05:39:00,
2013-04-25 01:54:00,73.9,62.0,30.12,NE,53,1.0,5.0,67,0.00,,,0.00,weatherlink.com 1.10,2013-04-25 05:54:00,
2013-04-25 02:09:00,73.9,62.0,30.12,ENE,67,2.0,5.0,67,0.00,,,0.00,weatherlink.com 1.10,2013-04-25 06:09:00,
2013-04-25 02:24:00,73.9,62.0,30.11,ENE,58,4.0,5.0,67,0.00,,,0.00,weatherlink.com 1.10,2013-04-25 06:24:00,
2013-04-25 02:39:00,73.7,62.0,30.10,ENE,71,0.0,4.0,68,0.00,,,0.00,weatherlink.com 1.10,2013-04-25 06:39:00,
2013-04-25 02:54:00,73.6,64.0,30.10,East,91,1.0,5.0,71,0.00,,,0.00,weatherlink.com 1.10,2013-04-25 06:54:00,
2013-04-25 03:09:00,73.8,63.0,30.10,NE,44,2.0,4.0,69,0.00,,,0.00,weatherlink.com 1.10,2013-04-25 07:09:00,
2013-04-25 03:24:00,73.5,62.0,30.10,ENE,62,0.0,3.0,67,0.00,,,0.00,weatherlink.com 1.10,2013-04-25 07:24:00,
2013-04-25 03:39:00,73.3,63.0,30.10,NE,40,0.0,3.0,69,0.00,,,0.00,weatherlink.com 1.10,2013-04-25 07:39:00,
2013-04-25 03:54:00,73.2,63.0,30.09,ENE,68,0.0,4.0,71,0.00,,,0.00,weatherlink.com 1.10,2013-04-25 07:54:00,
2013-04-25 04:09:00,73.1,63.0,30.09,ENE,71,1.0,5.0,70,0.00,,,0.00,weatherlink.com 1.10,2013-04-25 08:09:00,
2013-04-25 04:24:00,73.1,62.0,30.09,East,89,1.0,4.0,68,0.00,,,0.00,weatherlink.com 1.10,2013-04-25 08:24:00,
2013-04-25 04:39:00,72.9,62.0,30.09,ENE,63,1.0,3.0,69,0.00,,,0.00,weatherlink.com 1.10,2013-04-25 08:39:00,
2013-04-25 04:54:00,72.9,62.0,30.09,ESE,109,0.0,4.0,68,0.00,,,0.00,weatherlink.com 1.10,2013-04-25 08:54:00,
2013-04-25 05:09:00,72.7,63.0,30.10,East,81,0.0,4.0,71,0.00,,,0.00,weatherlink.com 1.10,2013-04-25 09:09:00,
2013-04-25 05:24:00,72.8,62.0,30.10,East,89,0.0,4.0,68,0.00,,,0.00,weatherlink.com 1.10,2013-04-25 09:24:00,
2013-04-25 05:39:00,72.7,62.0,30.11,ENE,72,0.0,3.0,70,0.00,,,0.00,weatherlink.com 1.10,2013-04-25 09:39:00,
2013-04-25 05:54:00,72.4,62.0,30.11,ENE,78,0.0,2.0,70,0.00,,,0.00,weatherlink.com 1.10,2013-04-25 09:54:00,
2013-04-25 06:09:00,72.0,62.0,30.12,ESE,110,1.0,3.0,71,0.00,,,0.00,weatherlink.com 1.10,2013-04-25 10:09:00,
2013-04-25 06:24:00,72.4,63.0,30.12,NE,49,1.0,3.0,71,0.00,,,0.00,weatherlink.com 1.10,2013-04-25 10:24:00,
2013-04-25 06:39:00,72.4,62.0,30.13,ENE,76,0.0,4.0,70,0.00,,,0.00,weatherlink.com 1.10,2013-04-25 10:39:00,
2013-04-25 06:54:00,72.2,62.0,30.14,NNE,25,1.0,4.0,71,0.00,,,0.00,weatherlink.com 1.10,2013-04-25 10:54:00,
2013-04-25 07:09:00,72.1,62.0,30.14,ENE,78,1.0,2.0,70,0.00,,,0.00,weatherlink.com 1.10,2013-04-25 11:09:00,
2013-04-25 07:24:00,72.0,62.0,30.15,ENE,63,0.0,1.0,70,0.00,,,0.00,weatherlink.com 1.10,2013-04-25 11:24:00,
2013-04-25 07:39:00,72.6,62.0,30.16,East,79,0.0,3.0,70,0.00,,,0.00,weatherlink.com 1.10,2013-04-25 11:39:00,
2013-04-25 07:54:00,73.1,62.0,30.16,East,100,3.0,4.0,68,0.00,,,0.00,weatherlink.com 1.10,2013-04-25 11:54:00,
2013-04-25 08:09:00,74.0,62.0,30.16,ENE,71,0.0,2.0,67,0.00,,,0.00,weatherlink.com 1.10,2013-04-25 12:09:00,
2013-04-25 08:24:00,74.9,63.0,30.17,NE,53,0.0,2.0,67,0.00,,,0.00,weatherlink.com 1.10,2013-04-25 12:24:00,
2013-04-25 08:39:00,75.8,63.0,30.17,ENE,74,0.0,2.0,64,0.00,,,0.00,weatherlink.com 1.10,2013-04-25 12:39:00,
2013-04-25 08:54:00,75.8,64.0,30.17,East,86,0.0,3.0,66,0.00,,,0.00,weatherlink.com 1.10,2013-04-25 12:54:00,
2013-04-25 09:09:00,77.0,64.0,30.17,East,81,0.0,3.0,64,0.00,,,0.00,weatherlink.com 1.10,2013-04-25 13:09:00,
2013-04-25 09:24:00,77.4,63.0,30.18,SE,132,1.0,4.0,62,0.00,,,0.00,weatherlink.com 1.10,2013-04-25 13:24:00,
2013-04-25 09:39:00,79.4,64.0,30.18,NE,54,0.0,4.0,60,0.00,,,0.00,weatherlink.com 1.10,2013-04-25 13:39:00,
2013-04-25 09:54:00,80.1,64.0,30.18,ENE,63,2.0,4.0,59,0.00,,,0.00,weatherlink.com 1.10,2013-04-25 13:54:00,
2013-04-25 10:10:00,79.8,64.0,30.18,ENE,63,1.0,5.0,58,0.00,,,0.00,weatherlink.com 1.10,2013-04-25 14:10:00,
2013-04-25 10:25:00,80.0,64.0,30.18,East,79,3.0,4.0,59,0.00,,,0.00,weatherlink.com 1.10,2013-04-25 14:25:00,
2013-04-25 10:40:00,80.9,65.0,30.19,NE,56,2.0,3.0,58,0.00,,,0.00,weatherlink.com 1.10,2013-04-25 14:40:00,
2013-04-25 10:55:00,81.2,64.0,30.19,NE,47,1.0,5.0,57,0.00,,,0.00,weatherlink.com 1.10,2013-04-25 14:55:00,
2013-04-25 11:10:00,81.1,64.0,30.19,NE,45,4.0,4.0,56,0.00,,,0.00,weatherlink.com 1.10,2013-04-25 15:10:00,
2013-04-25 11:25:00,81.6,63.0,30.19,NE,56,2.0,5.0,54,0.00,,,0.00,weatherlink.com 1.10,2013-04-25 15:25:00,
2013-04-25 11:40:00,82.0,64.0,30.19,ESE,106,0.0,5.0,54,0.00,,,0.00,weatherlink.com 1.10,2013-04-25 15:40:00,
2013-04-25 11:55:00,81.7,64.0,30.19,NE,45,0.0,5.0,56,0.00,,,0.00,weatherlink.com 1.10,2013-04-25 15:55:00,
2013-04-25 12:10:00,82.2,63.0,30.20,ESE,102,2.0,5.0,52,0.00,,,0.00,weatherlink.com 1.10,2013-04-25 16:10:00,
2013-04-25 12:25:00,83.8,63.0,30.20,East,85,2.0,3.0,49,0.00,,,0.00,weatherlink.com 1.10,2013-04-25 16:25:00,
2013-04-25 12:40:00,84.0,64.0,30.20,ENE,65,0.0,3.0,51,0.00,,,0.00,weatherlink.com 1.10,2013-04-25 16:40:00,
2013-04-25 12:55:00,83.9,64.0,30.19,NE,56,1.0,4.0,51,0.00,,,0.00,weatherlink.com 1.10,2013-04-25 16:55:00,
2013-04-25 13:10:00,83.7,64.0,30.19,East,84,1.0,7.0,51,0.00,,,0.00,weatherlink.com 1.10,2013-04-25 17:10:00,
2013-04-25 13:25:00,83.9,64.0,30.19,ESE,102,1.0,4.0,51,0.00,,,0.00,weatherlink.com 1.10,2013-04-25 17:25:00,
2013-04-25 13:40:00,83.6,63.0,30.19,East,101,3.0,5.0,50,0.00,,,0.00,weatherlink.com 1.10,2013-04-25 17:40:00,
2013-04-25 13:55:00,84.5,63.0,30.19,East,91,2.0,5.0,49,0.00,,,0.00,weatherlink.com 1.10,2013-04-25 17:55:00,
2013-04-25 14:10:00,84.2,63.0,30.19,ESE,115,1.0,3.0,49,0.00,,,0.00,weatherlink.com 1.10,2013-04-25 18:10:00,
2013-04-25 14:25:00,85.2,65.0,30.19,ENE,70,1.0,3.0,51,0.00,,,0.00,weatherlink.com 1.10,2013-04-25 18:25:00,
2013-04-25 14:40:00,85.0,63.0,30.18,East,88,1.0,3.0,47,0.00,,,0.00,weatherlink.com 1.10,2013-04-25 18:40:00,
2013-04-25 14:55:00,84.2,62.0,30.18,East,86,1.0,5.0,47,0.00,,,0.00,weatherlink.com 1.10,2013-04-25 18:55:00,
2013-04-25 15:10:00,83.0,64.0,30.18,East,82,2.0,7.0,52,0.00,,,0.00,weatherlink.com 1.10,2013-04-25 19:10:00,
2013-04-25 15:25:00,83.8,64.0,30.17,East,79,3.0,4.0,51,0.00,,,0.00,weatherlink.com 1.10,2013-04-25 19:25:00,
2013-04-25 15:40:00,83.8,63.0,30.17,ENE,72,2.0,6.0,50,0.00,,,0.00,weatherlink.com 1.10,2013-04-25 19:40:00,
2013-04-25 15:55:00,84.1,65.0,30.16,East,94,0.0,4.0,53,0.00,,,0.00,weatherlink.com 1.10,2013-04-25 19:55:00,
2013-04-25 16:10:00,84.3,64.0,30.16,ESE,103,4.0,4.0,50,0.00,,,0.00,weatherlink.com 1.10,2013-04-25 20:10:00,
2013-04-25 16:25:00,82.3,63.0,30.16,East,81,2.0,7.0,53,0.00,,,0.00,weatherlink.com 1.10,2013-04-25 20:25:00,
2013-04-25 16:40:00,82.3,63.0,30.16,NE,56,2.0,4.0,53,0.00,,,0.00,weatherlink.com 1.10,2013-04-25 20:40:00,
2013-04-25 16:55:00,82.5,65.0,30.16,NNE,15,1.0,3.0,55,0.00,,,0.00,weatherlink.com 1.10,2013-04-25 20:55:00,
2013-04-25 17:10:00,81.8,63.0,30.15,East,94,1.0,5.0,54,0.00,,,0.00,weatherlink.com 1.10,2013-04-25 21:10:00,
2013-04-25 17:25:00,81.5,63.0,30.15,South,188,0.0,4.0,54,0.00,,,0.00,weatherlink.com 1.10,2013-04-25 21:25:00,
2013-04-25 17:40:00,80.8,64.0,30.16,ESE,114,2.0,6.0,56,0.00,,,0.00,weatherlink.com 1.10,2013-04-25 21:40:00,
2013-04-25 17:55:00,80.5,64.0,30.15,East,86,4.0,5.0,57,0.00,,,0.00,weatherlink.com 1.10,2013-04-25 21:55:00,
2013-04-25 18:10:00,79.6,63.0,30.16,East,96,0.0,5.0,57,0.00,,,0.00,weatherlink.com 1.10,2013-04-25 22:10:00,
2013-04-25 18:25:00,79.2,63.0,30.16,ENE,58,1.0,5.0,58,0.00,,,0.00,weatherlink.com 1.10,2013-04-25 22:25:00,
2013-04-25 18:40:00,78.4,62.0,30.17,ESE,120,0.0,2.0,58,0.00,,,0.00,weatherlink.com 1.10,2013-04-25 22:40:00,
2013-04-25 18:55:00,77.6,63.0,30.16,East,96,0.0,3.0,60,0.00,,,0.00,weatherlink.com 1.10,2013-04-25 22:55:00,
2013-04-25 19:10:00,76.8,63.0,30.16,East,90,1.0,3.0,62,0.00,,,0.00,weatherlink.com 1.10,2013-04-25 23:10:00,
2013-04-25 19:25:00,75.9,62.0,30.16,ENE,71,1.0,3.0,63,0.00,,,0.00,weatherlink.com 1.10,2013-04-25 23:25:00,
2013-04-25 19:40:00,75.2,62.0,30.16,ESE,120,0.0,3.0,63,0.00,,,0.00,weatherlink.com 1.10,2013-04-25 23:40:00,
2013-04-25 19:55:00,74.5,63.0,30.17,ENE,72,1.0,2.0,67,0.00,,,0.00,weatherlink.com 1.10,2013-04-25 23:55:00,
2013-04-25 20:10:00,73.9,62.0,30.17,NE,56,2.0,4.0,67,0.00,,,0.00,weatherlink.com 1.10,2013-04-26 00:10:00,
2013-04-25 20:25:00,73.6,62.0,30.17,East,92,0.0,3.0,67,0.00,,,0.00,weatherlink.com 1.10,2013-04-26 00:25:00,
2013-04-25 20:40:00,73.4,62.0,30.17,ESE,109,1.0,4.0,68,0.00,,,0.00,weatherlink.com 1.10,2013-04-26 00:40:00,
2013-04-25 20:55:00,73.3,62.0,30.18,NE,56,1.0,3.0,68,0.00,,,0.00,weatherlink.com 1.10,2013-04-26 00:55:00,
2013-04-25 21:10:00,73.3,63.0,30.18,ESE,108,0.0,3.0,69,0.00,,,0.00,weatherlink.com 1.10,2013-04-26 01:10:00,
2013-04-25 21:25:00,72.9,63.0,30.19,ESE,120,0.0,1.0,72,0.00,,,0.00,weatherlink.com 1.10,2013-04-26 01:25:00,
2013-04-25 21:40:00,72.6,62.0,30.20,ENE,78,0.0,2.0,70,0.00,,,0.00,weatherlink.com 1.10,2013-04-26 01:40:00,
2013-04-25 21:55:00,72.8,62.0,30.20,East,96,1.0,2.0,69,0.00,,,0.00,weatherlink.com 1.10,2013-04-26 01:55:00,
2013-04-25 22:10:00,72.6,62.0,30.21,ENE,75,0.0,1.0,70,0.00,,,0.00,weatherlink.com 1.10,2013-04-26 02:10:00,
2013-04-25 22:25:00,72.8,62.0,30.21,ENE,58,1.0,2.0,69,0.00,,,0.00,weatherlink.com 1.10,2013-04-26 02:25:00,
2013-04-25 22:40:00,72.7,62.0,30.21,East,89,0.0,2.0,70,0.00,,,0.00,weatherlink.com 1.10,2013-04-26 02:40:00,
2013-04-25 22:55:00,72.7,62.0,30.21,East,99,2.0,3.0,68,0.00,,,0.00,weatherlink.com 1.10,2013-04-26 02:55:00,
2013-04-25 23:10:00,72.4,62.0,30.21,ENE,74,3.0,6.0,70,0.00,,,0.00,weatherlink.com 1.10,2013-04-26 03:10:00,
2013-04-25 23:26:00,72.5,61.0,30.22,ENE,58,0.0,4.0,67,0.00,,,0.00,weatherlink.com 1.10,2013-04-26 03:26:00,
2013-04-25 23:41:00,72.4,62.0,30.21,ENE,63,0.0,3.0,69,0.00,,,0.00,weatherlink.com 1.10,2013-04-26 03:41:00,
2013-04-25 23:56:00,72.5,62.0,30.21,SE,144,3.0,6.0,69,0.00,,,0.00,weatherlink.com 1.10,2013-04-26 03:56:00,